Location: Poughquag
(41.6090°N, 73.6820°W)
Time: 12:24:14
(UTC-04:00)

Transit 2A Rocket - Pass Details

Date: 05 June 2020
Orbit: 584 x 919 km, 66.7° (Epoch: 06 July)

Event Time Altitude Azimuth Distance (km) Brightness Sun altitude
Rises 04:58:20 0° 338° (NNW) 3,494 8.6 -4.4°
Reaches altitude 10° 05:01:39 10° 357° (N) 2,588 8.2 -3.9°
Maximum altitude 05:05:48 19° 40° (NE) 2,055 8.6 -3.3°
Drops below altitude 10° 05:09:58 10° 83° (E) 2,613 9.0 -2.6°
Sets 05:13:19 0° 101° (E) 3,541 9.2 -2.1°
